User: anonymous   Login
Location: Unspecified
(0.0000°N, 0.0000°E)
Time: 15:23:52
(UTC+02:00)
Language:

IUS-9 SRM-1 - Orbit

View from above orbital plane
View from above orbital plane
View from above satellite
View from above satellite

Ground track
Ground track

The orbit data is extracted from the following two-line orbital elements,

1 19884U 89021C   15212.24220111  .00009185  00000-0  10097-2 0  9996
2 19884 026.4277 176.4825 6025930 132.6165 358.6391 04.03160127305908
Epoch (UTC): 31 July 2015 05:48:46
Eccentricity: 0.6025930
inclination: 26.4277°
perigee height: 249 km
apogee height: 20346 km
right ascension of ascending node: 176.4825°
argument of perigee: 132.6165°
revolutions per day: 4.03160127
mean anomaly at epoch: 358.6391°
orbit number at epoch: 30590

The dashed part of the orbit path shows where the satellite is in the earth's shadow,  

DLR